Regional Weather Roundup
Issued by NWS

Home | Current Version | Previous Version | Text Only | Print | Product List | Glossary On
Versions: 1 2 3 4 5 6 7 8 9 10 11 12 13 14 15 16 17 18 19 20 21 22 23 24 25 26 27 28 29 30 31 32 33 34 35 36 37 38 39 40 41 42 43 44 45 46 47 48 49 50
955
ASUS44 KJAN 010203
RWRMS

MISSISSIPPI HOURLY WEATHER ROUNDUP
NATIONAL WEATHER SERVICE JACKSON MS
900 PM CDT TUE SEP 30 2014

NOTE: "FAIR: INDICATES FEW OR NO CLOUDS BELOW 12,000 FEET WITH NO
SIGNIFICANT WEATHER AND/OR OBSTRUCTIONS TO VISIBILITY.

MSZ001>002-007>008-010>013-018>021-025>028-034>036-010300-
NORTHWEST MISSISSIPPI

CITY           SKY/WX    TMP DP  RH WIND       PRES   REMARKS
CLARKSDALE     FAIR      72  61  68 N3        29.88R
CLEVELAND      FAIR      74  62  66 CALM      29.86R
GREENWOOD      CLEAR     71  66  84 NE5       29.87R
GREENVILLE     PTCLDY    74  61  63 NE3       29.85R
GRENADA        FAIR      68  64  88 CALM      29.88R
OLIVE BRANCH   CLEAR     72  66  83 CALM      29.89R
OXFORD         FAIR      66  64  94 CALM      29.91R
TUNICA         CLEAR     70  63  78 CALM      29.88S
$$

MSZ003>006-009-014>017-022>024-029>033-037>039-010300-
NORTHEAST MISSISSIPPI

CITY           SKY/WX    TMP DP  RH WIND       PRES   REMARKS
COLUMBUS AFB   CLEAR     69  65  86 CALM      29.89R
CORINTH          N/A     66  64  94 CALM      29.90R
GOLDN TRIANGLE CLEAR     72  57  60 CALM      29.89R
STARKVILLE     FAIR      66  61  82 CALM      29.90R
TUPELO         PTCLDY    71  61  70 CALM      29.89R
$$

MSZ040-058-010300-
CENTRAL MISSISSIPPI

CITY           SKY/WX    TMP DP  RH WIND       PRES   REMARKS
JACKSON INTL   PTCLDY    74  66  76 CALM      29.88R
JACKSON HAWKNS CLEAR     78  66  66 SE5       29.88R
MERIDIAN KEY   CLEAR     68  63  84 CALM      29.89R
MERIDIAN NAS   CLEAR     69  60  73 CALM      29.90R
RAYMOND        FAIR      72  66  83 E3        29.87R
VICKSBURG      CLEAR     70  67  90 CALM      29.85R
$$

MSZ059>079-010300-
SOUTH MISSISSIPPI

CITY           SKY/WX    TMP DP  RH WIND       PRES   REMARKS
BROOKHAVEN     FAIR      75  70  83 CALM      29.90R
COLUMBIA       FAIR      72  70  94 E3        29.87S
HATTIESBURG    CLEAR     73  69  87 CALM      29.90R
MCCOMB         CLEAR     76  69  79 SE5       29.88R
NATCHEZ        CLEAR     73  70  88 CALM      29.87R
PINE BELT      CLEAR     70  64  83 CALM      29.91R
$$

MSZ080>082-010300-
COASTAL MISSISSIPPI

CITY           SKY/WX    TMP DP  RH WIND       PRES   REMARKS
BILOXI         CLEAR     78  71  77 SE6       29.88R
PASCAGOULA     CLEAR     72  69  90 CALM      29.89R
GULFPORT       CLEAR     77  71  82 SE5       29.88R
$$



USA.gov is the U.S. government's official web portal to all federal, state and local government web resources and services.